一网星座-0056星 (ONEWEB-0056 )

导读 | 星芒AI

ONEWEB-0056 是 OneWeb 卫星星座计划中的一颗低轨通信卫星,旨在为全球提供高速互联网服务。该卫星由阿丽亚娜集团制造,采用标准化设计以提高部署效率。它运行在约 1200 公里的近地轨道,与其他 OneWeb 卫星共同构建覆盖全球的宽带网络,特别服务于偏远和网络基础设施薄弱的地区。ONEWEB-0056 的发射进一步推动了 OneWeb 在全球卫星互联网市场的布局。

基本信息
目录编号:
45159
目录名称:
ONEWEB-0056
国际标识:
2020-008AE
轨道中心:
EARTH
卫星名称:
一网星座-0056星
卫星全名:
一网星座-0056星 (ONEWEB-0056 )
卫星状态:
在轨 (已飞行2137 天)
发射日期:
2020-02-06 UTC
国别 :
英国 (GB)
星等 :
--
轨道信息
数据来源 国际轨道数据 AOE轨道数据
星历时间 2025-12-13T07:31:46+0800
10小时前
查看轨道信息
2025-12-07T05:00:00+0800
6天前
查看轨道信息
半长轴 7599.842km 7599.871km
偏心率 0.0001503 0.0001299
轨道倾角 87.881° 87.881°
近地点辐角 109.558° 111.958°
升交点赤经 73.381° 74.597°
平近点角 250.571° 263.174°
近地点 1220.564km 1220.748km
远地点 1222.85km 1222.724km
周期 109.892分钟 109.893分钟
每日圈数 13.103762 13.103687
详细信息
平衡模式:
三轴稳定
覆盖范围:
全球
运营商:
一网卫星公司
运营商所在国:
英国
制造商(研发单位):
一网卫星公司
制造商所在国:
英国
使用方式:
暂无
卫星简介
OneWeb卫星网络由648颗重约125公斤的微型卫星组成,运行在1200公里的轨道上。 每颗卫星都能够提供至少每秒8千兆位的吞吐量,以使用其高吞吐量的Ku频段有效载荷为家庭和移动平台提供互联网接入。该卫星仍在工作。
2D轨道图
3D轨道图
轨道高度分析图
轨道倾角分析图
轨道综合分析图
查看轨道综合分析图